Tracking 25648 objects as of 17-May-2022
HD Live streaming from Space Station
objects crossing your sky now

ONEWEB-0165

Track ONEWEB-0165 now!
10-day predictions
ONEWEB-0165 is classified as:


NORAD ID: 48233
Int'l Code: 2021-031Z
Perigee: 1,211.4 km
Apogee: 1,214.5 km
Inclination: 87.9 °
Period: 109.5 minutes
Semi major axis: 7583 km
RCS: Unknown
Launch date: April 25, 2021
Source: United Kingdom (UK)
Launch site: VOSTOCHNY COSMODROME (VOSTO)
aabbcc
Your satellite tracking list
Your tracking list is empty




NASA's NSSDC Master Catalog

Two Line Element Set (TLE):
1 48233U 21031Z   22136.53169973  .00000132  00000-0  32136-3 0  9998
2 48233  87.9057 226.3586 0002064 114.8869 245.2476 13.14503009 52260
Source of the keplerian elements: AFSPC